Location: Eastlake (historical)
(39.0077°N, 122.6678°W)
Time: 06:21:49
(UTC+00:00)

COSMOS 2455 - Pass Details

Date: 25 November 2020
Orbit: 900 x 909 km, 67.1° (Epoch: 27 January)

Event Time Altitude Azimuth Distance (km) Brightness Sun altitude
Rises 14:18:51 0° 191° (S) 3,510 6.0 -9.1°
Reaches altitude 10° 14:21:24 10° 186° (S) 2,575 5.4 -8.6°
Maximum altitude 14:27:09 51° 112° (ESE) 1,127 3.9 -7.6°
Drops below altitude 10° 14:32:57 10° 38° (NE) 2,596 5.5 -6.5°
Sets 14:35:31 0° 34° (NNE) 3,542 6.1 -6.1°
